This is the latest recevied weather packets stored in our database for station/object DB0RV-13. If no packets are shown the sender has not sent any weather packets the latest 1 day(s).
| Time | Temp. | Humidity | Pressure | Rain* | Wind** | Luminosity | Snow |
|---|---|---|---|---|---|---|---|
| 1777972802 | 12.78° C | 78% | 1008.4 hPa | - | 1.79 m/s, 259° | - | - |
| 1777972502 | 12.78° C | 79% | 1008.3 hPa | - | 2.68 m/s, 262° | - | - |
| 1777972201 | 12.78° C | 79% | 1008.3 hPa | - | 1.34 m/s, 245° | - | - |
| 1777971902 | 12.78° C | 78% | 1008.3 hPa | - | 3.13 m/s, 248° | - | - |
| 1777971601 | 12.78° C | 79% | 1008.4 hPa | - | 2.24 m/s, 244° | - | - |
| 1777971302 | 12.78° C | 80% | 1008.3 hPa | - | 2.24 m/s, 239° | - | - |
| 1777971001 | 12.22° C | 79% | 1008.4 hPa | - | 1.79 m/s, 266° | - | - |
| 1777970702 | 12.78° C | 80% | 1008.4 hPa | - | 2.24 m/s, 244° | - | - |
| 1777970401 | 12.22° C | 79% | 1008.4 hPa | - | 2.24 m/s, 246° | - | - |
| 1777970102 | 12.78° C | 79% | 1008.5 hPa | - | 1.79 m/s, 253° | - | - |
| 1777969802 | 12.78° C | 80% | 1008.4 hPa | - | 1.34 m/s, 241° | - | - |
| 1777969501 | 12.78° C | 79% | 1008.4 hPa | - | 0.89 m/s, 239° | - | - |
| 1777969202 | 12.78° C | 81% | 1008.5 hPa | - | 1.34 m/s, 247° | - | - |
| 1777968901 | 12.22° C | 82% | 1008.4 hPa | - | 0.89 m/s, 239° | - | - |
| 1777968602 | 11.67° C | 82% | 1008.5 hPa | - | 2.24 m/s, 250° | - | - |
| 1777968301 | 11.67° C | 82% | 1008.6 hPa | - | 2.24 m/s, 230° | - | - |
| 1777968002 | 11.67° C | 84% | 1008.6 hPa | - | 0.89 m/s, 251° | - | - |
| 1777967701 | 11.67° C | 83% | 1008.6 hPa | - | 1.34 m/s, 227° | - | - |
| 1777967402 | 11.67° C | 84% | 1008.8 hPa | - | 1.79 m/s, 219° | - | - |
| 1777967101 | 11.67° C | 84% | 1008.7 hPa | - | 2.24 m/s, 240° | - | - |
| 1777966801 | 11.67° C | 85% | 1008.8 hPa | - | 2.24 m/s, 216° | - | - |
| 1777966502 | 11.67° C | 85% | 1008.8 hPa | - | 1.79 m/s, 200° | - | - |
| 1777966201 | 11.67° C | 84% | 1008.8 hPa | - | 2.24 m/s, 239° | - | - |
| 1777965902 | 11.11° C | 84% | 1008.9 hPa | - | 1.34 m/s, 244° | - | - |
| 1777965601 | 11.67° C | 85% | 1008.8 hPa | - | 1.34 m/s, 244° | - | - |
* Rain since midnight (hover to see other rain measurements)
** Current wind speed in m/s (hover to see current wind gust speed)